AirNav   Air Wisconsin pilot careers
 
 806 users online  

1G5 Medina Municipal Airport
Medina, Ohio, USA

GOING TO MEDINA?


FAA INFORMATION EFFECTIVE 08 NOVEMBER 2018

Location

FAA Identifier: 1G5
Lat/Long: 41-07-53.2000N / 081-45-53.6000W
41-07.886667N / 081-45.893333W
41.1314444 / -81.7648889
(estimated)
Elevation: 1189.8 ft. / 362.7 m (surveyed)
Variation: 07W (1990)
From city: 4 miles E of MEDINA, OH
Time zone: UTC -5 (UTC -4 during Daylight Saving Time)
Zip code: 44256

Airport Operations

Airport use: Open to the public
Control tower: no
ARTCC: CLEVELAND CENTER
FSS: CLEVELAND FLIGHT SERVICE STATION
NOTAMs facility: CLE (NOTAM-D service available)
Attendance: 0800-DUSK
Wind indicator: lighted
Segmented circle: yes
Lights: ACTVT MIRL RWY 09/27, MIRL RWY 01/19 - CTAF. PAPI RWYS 09, 27, 01, & 19 OPER DUSK-2200; AFTER 2200 ACTVT-CTAF.
Beacon: white-green (lighted land airport)
Operates sunset to sunrise.

Airport Communications

CTAF/UNICOM: 123.0
CLEVELAND APPROACH: 125.35 [0600-2300]
CLEVELAND DEPARTURE: 125.35 [0600-2300]
WX ASOS at AKR (15 nm SE): 126.825 (330-724-4237)
WX ASOS at BJJ (16 nm S): 118.075 (330-669-9105)
WX ASOS at CLE (17 nm N): PHONE 216-267-9955
WX ASOS at CAK (19 nm SE): PHONE 330-493-5260
  • FOR IFR CLEARANCE CTC CLEVELAND APCH AT 216-352-2323.

Nearby radio navigation aids

VOR radial/distance  VOR name  Freq  Var
DJBr132/22.5DRYER VOR/DME113.6005W
ACOr277/25.5AKRON VOR/DME114.4004W
BSVr331/27.9BRIGGS VOR/DME112.4004W
CXRr235/35.6CHARDON VOR/DME112.7005W

 
NDB name  Hdg/Dist  Freq  Var  ID
LAKELAND216/37.326308WLQL .-.. --.- .-..

Airport Services

Fuel available: 100LL JET-A+
Parking: hangars and tiedowns
Airframe service: MAJOR
Powerplant service: MAJOR

Runway Information

Runway 9/27

Dimensions: 3556 x 75 ft. / 1084 x 23 m
Surface: asphalt, in excellent condition
Weight bearing capacity: 
Single wheel: 30.0
Runway edge lights: medium intensity
RUNWAY 9  RUNWAY 27
Latitude: 41-07.881618N41-07.946467N
Longitude: 081-46.425062W081-45.655383W
Elevation: 1168.8 ft.1182.8 ft.
Gradient: 0.4%0.4%
Traffic pattern: leftleft
Runway heading: 091 magnetic, 084 true271 magnetic, 264 true
Markings: nonprecision, in good conditionnonprecision, in good condition
Visual slope indicator: 4-light PAPI on left (3.00 degrees glide path)
PAPI OTS INDEFLY.
4-light PAPI on left (3.50 degrees glide path)
Runway end identifier lights: yes
Touchdown point: yes, no lightsyes, no lights
Obstructions: 85 ft. trees, 1450 ft. from runway, 370 ft. right of centerline, 14:1 slope to clear55 ft. trees, 1450 ft. from runway, 45 ft. right of centerline, 22:1 slope to clear
+2-10FT BRUSH, 130FT FM, 135FT -TO- 175FT R

Runway 1/19

Dimensions: 2868 x 60 ft. / 874 x 18 m
Surface: asphalt, in poor condition
LARGE CRACKS, ROUGH RIDE QUALITY.
Weight bearing capacity: 
Single wheel: 25.0
Runway edge lights: medium intensity
Runway edge markings: RWY 19: MARKING FADED
RUNWAY 1  RUNWAY 19
Latitude: 41-07.616738N41-08.088963N
Longitude: 081-45.718333W081-45.707340W
Elevation: 1170.1 ft.1189.8 ft.
Gradient: 0.6%0.6%
Traffic pattern: leftleft
Runway heading: 008 magnetic, 001 true188 magnetic, 181 true
Displaced threshold: no737 ft.
RWY 19 APCH RATIO 26:1 TO DSPLCD THLD DUE TO +74 FT TREES 1940 FT FM DSPLCD THLD.
Markings: basic, in fair conditionbasic, in poor condition
Visual slope indicator: 4-light PAPI on left (3.00 degrees glide path)4-light PAPI on left (4.00 degrees glide path)
Touchdown point: yes, no lightsyes, no lights
Obstructions: 15 ft. pline, marked, 450 ft. from runway, 16:1 slope to clear
OBST CLN SLOPE 20:1 TO DSPLCD THLD DUE TO +60FT TREE 650FT FM RWY 19.
60 ft. trees, 650 ft. from runway, 195 ft. left of centerline, 7:1 slope to clear

Airport Ownership and Management from official FAA records

Ownership: Publicly-owned
Owner: CITY OF MEDINA
P O BOX 703
MEDINA, OH 44258
Phone 330-725-8861
Manager: GREG HUBER
P O BOX 703
MEDINA, OH 44258
Phone 330-239-1606

Airport Operational Statistics

Aircraft based on the field: 68
Single engine airplanes: 56
Multi engine airplanes: 5
Helicopters: 3
Ultralights: 4
    
Aircraft operations: avg 218/day *
69% local general aviation
29% transient general aviation
2% air taxi
<1% military
* for 12-month period ending 08 September 2017

Additional Remarks

DEER, BIRDS AND OTHER WILDLIFE ON & INVOF ARPT

Instrument Procedures

NOTE: All procedures below are presented as PDF files. If you need a reader for these files, you should download the free Adobe Reader.

NOT FOR NAVIGATION. Please procure official charts for flight.
FAA instrument procedures published for use from 8 November 2018 at 0901Z to 6 December 2018 at 0900Z.

 
STARs - Standard Terminal Arrivals
CHARDON THREE   download (255KB)
HIMEZ FOUR   download (207KB)
ZABER SIX   2 pages: [1] [2] (410KB)
 
IAPs - Instrument Approach Procedures
RNAV (GPS) RWY 09   download (156KB)
RNAV (GPS) RWY 27   download (163KB)
VOR RWY 27   download (184KB)
 
Departure Procedures
ALPHE FOUR (RNAV)   download (205KB)
AMRST FIVE   download (255KB)
NOTE: Special Take-Off Minimums/Departure Procedures apply   download (164KB)

Other nearby airports with instrument procedures:

3G3 - Wadsworth Municipal Airport (8 nm S)
KAKR - Akron Fulton International Airport (15 nm SE)
1G3 - Kent State University Airport (16 nm E)
KBJJ - Wayne County Airport (16 nm S)
KCLE - Cleveland-Hopkins International Airport (17 nm N)
1G1 - Elyria Airport (19 nm NW)
KCAK - Akron-Canton Regional Airport (19 nm SE)
 
Loc | Ops | Rwys | IFR | FBO | Links
Com | Nav | Svcs | Stats | Notes


 
Area around 1G5 (Medina Municipal Airport)
 
Road maps at: MapQuest Bing Google
 
Aerial photo
WARNING: Photo may not be current or correct
Aerial photo of 1G5 (Medina Municipal Airport)
Do you have a better or more recent aerial photo of Medina Municipal Airport that you would like to share? If so, please send us your photo.

 
Sectional chart

 
Airport distance calculator
Flying to Medina Municipal Airport? Find the distance to fly.

From to 1G5

Sunrise and sunset
Times for 17-Nov-2018
 Local
(UTC-5)
 Zulu
(UTC)
Morning civil twilight06:4911:49
Sunrise07:1812:18
Sunset17:0622:06
Evening civil twilight17:3622:36

Current date and time
Zulu (UTC)  18-Nov-2018 02:41:54
Local (UTC-5)  17-Nov-2018 21:41:54
 
METAR
KAKR 
15nm SE 
180154Z AUTO 00000KT 6SM BR OVC023 03/01 A3029 RMK AO2 SLP266 P0000 T00280006
KBJJ 
17nm S 
180156Z AUTO 06006KT 8SM SCT007 OVC027 02/01 A3029 RMK AO2 RAB0059E10 SLP269 P0000 T00170006
KCLE 
18nm N 
180158Z 20004KT 10SM FEW025 OVC032 03/01 A3033 RMK AO2 T00280006
KCAK 
19nm SE 
180151Z 07004KT 3SM -SN BR BKN018 OVC025 02/M01 A3029 RMK AO2 SFC VIS 4 SLP268 SNB10 P0000 T00171006
KLPR 
23nm NW 
180153Z AUTO 00000KT 10SM OVC032 02/M01 A3031 RMK AO2 UPE0058RAB0058E0059 SLP272 P0000 T00171011
KPOV 
24nm E 
180217Z AUTO 00000KT 5SM SCT021 OVC026 01/00 A3029 RMK AO2 T00060001 PWINO
KBKL 
25nm N 
180153Z 11005KT 10SM OVC019 03/01 A3031 RMK AO2 RAE01B36E52 SLP267 P0000 T00330006 $
KCGF 
29nm NE 
180145Z 12006KT 10SM OVC030 02/01 A3031
TAF
KCLE 
18nm N 
180206Z 1802/1906 VRB03KT P6SM OVC030 FM180600 05005KT P6SM OVC010 FM181200 10005KT 2SM -SNRA BR OVC009 FM182100 33005KT 2SM -RA BR OVC010
KCAK 
19nm SE 
171738Z 1718/1818 26006KT P6SM OVC015 FM180200 VRB03KT P6SM OVC015 FM180600 08005KT P6SM OVC008 FM181200 12005KT P6SM VCSH OVC008
NOTAMs
Click for the latest NOTAMs
NOTAMs are issued by the DoD/FAA and will open in a separate window not controlled by AirNav.

 

 
 

FBO, Fuel Providers, and Aircraft Ground Support

  
 Business Name 
 
 Contact 
 
 Services / Description 
 
Fuel Prices
 
Comments
  
Flight Services of Medina 330-239-1606
[web site]
Aviation fuel, Aircraft parking (ramp or tiedown), Flight training, Aircraft rental, Aerial tours / aerial sightseeing, Aerial photography, Aircraft maintenance, ...

More info about Flight Services of Medina
EPIC
100LL Jet A
AS --- $3.65 
SS $4.95 --- 
 Updated 15-Nov-2018
 
   1 read write
AS=Assisted/Self Service
SS=Self service
Update Fuel Prices
 

Would you like to see your business listed on this page?

 If your business provides an interesting product or service to pilots, flight crews, aircraft, or users of the Medina Municipal Airport, you should consider listing it here.  To start the listing process, click on the button below
 
Add a business
 

Other Pages about Medina Municipal Airport

www.medinaoh.org/...
 
Update a link
 
Copyright © AirNav, LLC. All rights reserved. Privacy Policy  Contact